2016-05-22 00:01:30 r, 17.79m,0000000006Hz,0000068153c,0000000.148s, 034.8C,00002195
2016-05-22 00:11:32 r, 17.79m,0000000007Hz,0000068097c,0000000.148s, 034.4C,00002195
2016-05-22 00:21:30 r, 17.80m,0000000006Hz,0000069067c,0000000.150s, 034.4C,00002195
2016-05-22 00:31:30 r, 17.79m,0000000007Hz,0000068292c,0000000.148s, 034.4C,00002195
2016-05-22 00:41:30 r, 17.79m,0000000006Hz,0000068121c,0000000.148s, 034.4C,00002195
2016-05-22 00:51:31 r, 17.78m,0000000007Hz,0000067294c,0000000.146s, 034.8C,00002195
2016-05-22 01:01:30 r, 17.77m,0000000007Hz,0000066885c,0000000.145s, 034.8C,00002195
2016-05-22 01:11:31 r, 17.77m,0000000007Hz,0000066940c,0000000.145s, 034.8C,00002195
2016-05-22 01:21:30 r, 17.72m,0000000007Hz,0000063527c,0000000.138s, 034.8C,00002195
2016-05-22 01:31:30 r, 17.75m,0000000007Hz,0000065430c,0000000.142s, 034.8C,00002195
2016-05-22 01:41:30 r, 17.80m,0000000006Hz,0000068834c,0000000.149s, 034.4C,00002195
2016-05-22 01:51:33 r, 17.82m,0000000006Hz,0000069937c,0000000.152s, 034.4C,00002195
2016-05-22 02:01:31 r, 17.65m,0000000008Hz,0000059902c,0000000.130s, 034.1C,00002195
2016-05-22 02:11:31 r, 17.54m,0000000008Hz,0000054034c,0000000.117s, 034.1C,00002195
2016-05-22 02:21:30 r, 17.45m,0000000009Hz,0000049749c,0000000.108s, 034.1C,00002195
2016-05-22 02:31:30 r, 17.39m,0000000010Hz,0000046853c,0000000.102s, 033.8C,00002195
2016-05-22 02:41:33 r, 17.42m,0000000010Hz,0000048150c,0000000.104s, 033.8C,00002195
2016-05-22 02:51:31 r, 17.41m,0000000010Hz,0000047964c,0000000.104s, 033.5C,00002195
2016-05-22 03:01:30 r, 17.49m,0000000009Hz,0000051887c,0000000.113s, 033.5C,00002195
2016-05-22 03:11:30 r, 17.44m,0000000009Hz,0000049168c,0000000.107s, 033.5C,00002195
2016-05-22 03:21:32 r, 17.49m,0000000009Hz,0000051955c,0000000.113s, 033.5C,00002195
2016-05-22 03:31:30 r, 17.46m,0000000009Hz,0000050019c,0000000.109s, 033.5C,00002195
2016-05-22 03:41:31 r, 17.39m,0000000010Hz,0000047112c,0000000.102s, 033.5C,00002195
2016-05-22 03:51:31 r, 17.22m,0000000011Hz,0000040426c,0000000.088s, 033.1C,00002195
2016-05-22 04:01:31 r, 17.01m,0000000013Hz,0000033227c,0000000.072s, 033.1C,00002195
2016-05-22 04:11:30 r, 17.11m,0000000012Hz,0000036370c,0000000.079s, 033.1C,00002195
2016-05-22 04:21:33 r, 16.70m,0000000019Hz,0000024850c,0000000.054s, 033.1C,00002195
2016-05-22 04:31:30 r, 16.25m,0000000028Hz,0000016506c,0000000.036s, 032.8C,00002195
2016-05-22 04:41:33 r, 15.19m,0000000074Hz,0000006190c,0000000.013s, 032.8C,00002195
2016-05-22 04:51:31 r, 13.64m,0000000313Hz,0000000000c,0000000.000s, 032.5C,00002195
2016-05-22 05:01:30 r, 12.02m,0000001388Hz,0000000000c,0000000.000s, 032.5C,00002195
2016-05-22 05:11:33 r, 10.46m,0000005825Hz,0000000000c,0000000.000s, 032.2C,00002195
2016-05-22 05:21:31 r, 09.12m,0000020194Hz,0000000000c,0000000.000s, 032.2C,00002195
2016-05-22 05:31:30 r, 08.01m,0000055406Hz,0000000000c,0000000.000s, 031.9C,00002195
2016-05-22 05:41:30 r, 07.19m,0000117804Hz,0000000000c,0000000.000s, 031.9C,00002195
2016-05-22 05:51:31 r, 06.55m,0000214833Hz,0000000000c,0000000.000s, 031.9C,00002195
2016-05-22 06:01:30 r, 00.00m,0000424860Hz,0000000000c,0000000.000s, 031.9C,00002195
2016-05-22 06:11:30 r, 00.00m,0000564094Hz,0000000000c,0000000.000s, 032.2C,00002195
2016-05-22 06:21:31 r, 00.00m,0000564294Hz,0000000000c,0000000.000s, 032.2C,00002195
2016-05-22 06:31:30 r, 00.00m,0000564247Hz,0000000000c,0000000.000s, 032.5C,00002195
2016-05-22 06:41:30 r, 00.00m,0000564263Hz,0000000000c,0000000.000s, 032.8C,00002195
2016-05-22 06:51:31 r, 00.00m,0000564247Hz,0000000000c,0000000.000s, 032.8C,00002195
2016-05-22 07:01:30 r, 00.00m,0000564330Hz,0000000000c,0000000.000s, 033.1C,00002195
2016-05-22 07:11:30 r, 00.00m,0000564360Hz,0000000000c,0000000.000s, 033.5C,00002195
2016-05-22 07:21:30 r, 00.00m,0000564385Hz,0000000000c,0000000.000s, 033.8C,00002195
2016-05-22 07:31:30 r, 00.00m,0000564473Hz,0000000000c,0000000.000s, 034.4C,00002195
2016-05-22 07:41:30 r, 00.00m,0000564514Hz,0000000000c,0000000.000s, 034.8C,00002195
2016-05-22 07:51:32 r, 00.00m,0000564515Hz,0000000000c,0000000.000s, 035.1C,00002195
2016-05-22 08:01:30 r, 00.00m,0000564632Hz,0000000000c,0000000.000s, 035.4C,00002195
2016-05-22 08:11:30 r, 00.00m,0000564652Hz,0000000000c,0000000.000s, 036.0C,00002195
2016-05-22 08:21:33 r, 00.00m,0000564653Hz,0000000000c,0000000.000s, 036.4C,00002195
2016-05-22 08:31:30 r, 00.00m,0000564697Hz,0000000000c,0000000.000s, 037.0C,00002195
2016-05-22 08:41:30 r, 00.00m,0000564747Hz,0000000000c,0000000.000s, 037.0C,00002195
2016-05-22 08:51:33 r, 00.00m,0000564758Hz,0000000000c,0000000.000s, 037.3C,00002195
2016-05-22 09:01:30 r, 00.00m,0000564829Hz,0000000000c,0000000.000s, 038.3C,00002195
2016-05-22 09:11:33 r, 00.00m,0000565013Hz,0000000000c,0000000.000s, 039.9C,00002195
2016-05-22 09:21:31 r, 00.00m,0000565061Hz,0000000000c,0000000.000s, 040.9C,00002195
2016-05-22 09:31:30 r, 00.00m,0000565238Hz,0000000000c,0000000.000s, 041.9C,00002195
2016-05-22 09:41:30 r, 00.00m,0000565309Hz,0000000000c,0000000.000s, 042.5C,00002195
2016-05-22 09:51:30 r, 00.00m,0000565228Hz,0000000000c,0000000.000s, 042.2C,00002195
2016-05-22 10:01:33 r, 00.00m,0000565118Hz,0000000000c,0000000.000s, 041.9C,00002195
2016-05-22 10:11:30 r, 00.00m,0000565325Hz,0000000000c,0000000.000s, 042.8C,00002195
2016-05-22 10:21:30 r, 00.00m,0000565404Hz,0000000000c,0000000.000s, 044.1C,00002195
2016-05-22 10:31:33 r, 00.00m,0000565606Hz,0000000000c,0000000.000s, 045.4C,00002195
2016-05-22 10:41:30 r, 00.00m,0000565692Hz,0000000000c,0000000.000s, 047.3C,00002195
2016-05-22 10:51:31 r, 00.00m,0000565469Hz,0000000000c,0000000.000s, 045.7C,00002195
2016-05-22 11:01:31 r, 00.00m,0000565552Hz,0000000000c,0000000.000s, 045.7C,00002195
2016-05-22 11:11:30 r, 00.00m,0000565685Hz,0000000000c,0000000.000s, 047.7C,00002195
2016-05-22 11:21:31 r, 00.00m,0000565732Hz,0000000000c,0000000.000s, 048.0C,00002195
2016-05-22 11:31:32 r, 00.00m,0000565634Hz,0000000000c,0000000.000s, 047.7C,00002195
2016-05-22 11:41:30 r, 00.00m,0000565344Hz,0000000000c,0000000.000s, 044.8C,00002195
2016-05-22 11:51:32 r, 00.00m,0000565128Hz,0000000000c,0000000.000s, 043.1C,00002195
2016-05-22 12:01:30 r, 00.00m,0000565050Hz,0000000000c,0000000.000s, 042.2C,00002195
2016-05-22 12:11:31 r, 00.00m,0000565013Hz,0000000000c,0000000.000s, 041.2C,00002195
2016-05-22 12:21:30 r, 00.00m,0000565044Hz,0000000000c,0000000.000s, 040.9C,00002195
2016-05-22 12:31:33 r, 00.00m,0000564958Hz,0000000000c,0000000.000s, 040.2C,00002195
2016-05-22 12:41:30 r, 00.00m,0000565118Hz,0000000000c,0000000.000s, 041.5C,00002195
2016-05-22 12:51:30 r, 00.00m,0000565234Hz,0000000000c,0000000.000s, 042.5C,00002195
2016-05-22 13:01:30 r, 00.00m,0000565416Hz,0000000000c,0000000.000s, 044.1C,00002195
2016-05-22 13:11:31 r, 00.00m,0000565567Hz,0000000000c,0000000.000s, 046.7C,00002195
2016-05-22 13:21:30 r, 00.00m,0000565382Hz,0000000000c,0000000.000s, 045.1C,00002195
2016-05-22 13:31:32 r, 00.00m,0000565125Hz,0000000000c,0000000.000s, 042.5C,00002195
2016-05-22 13:41:30 r, 00.00m,0000565103Hz,0000000000c,0000000.000s, 041.5C,00002195
2016-05-22 13:51:31 r, 00.00m,0000565088Hz,0000000000c,0000000.000s, 041.9C,00002195
2016-05-22 14:01:33 r, 00.00m,0000565026Hz,0000000000c,0000000.000s, 041.5C,00002195
2016-05-22 14:11:30 r, 00.00m,0000565050Hz,0000000000c,0000000.000s, 041.2C,00002195
2016-05-22 14:21:31 r, 00.00m,0000565063Hz,0000000000c,0000000.000s, 041.2C,00002195
2016-05-22 14:31:30 r, 00.00m,0000565061Hz,0000000000c,0000000.000s, 041.2C,00002195
2016-05-22 14:41:30 r, 00.00m,0000565117Hz,0000000000c,0000000.000s, 040.6C,00002195
2016-05-22 14:51:33 r, 00.00m,0000565051Hz,0000000000c,0000000.000s, 040.6C,00002195
2016-05-22 15:01:30 r, 00.00m,0000564920Hz,0000000000c,0000000.000s, 040.2C,00002195
2016-05-22 15:11:30 r, 00.00m,0000564970Hz,0000000000c,0000000.000s, 040.2C,00002195
2016-05-22 15:21:30 r, 00.00m,0000564975Hz,0000000000c,0000000.000s, 040.6C,00002195
2016-05-22 15:31:31 r, 00.00m,0000565306Hz,0000000000c,0000000.000s, 042.8C,00002195
2016-05-22 15:41:30 r, 00.00m,0000565410Hz,0000000000c,0000000.000s, 044.4C,00002195
2016-05-22 15:51:32 r, 00.00m,0000565577Hz,0000000000c,0000000.000s, 046.7C,00002195
2016-05-22 16:01:31 r, 00.00m,0000565680Hz,0000000000c,0000000.000s, 048.3C,00002195
2016-05-22 16:11:30 r, 00.00m,0000565492Hz,0000000000c,0000000.000s, 046.4C,00002195
2016-05-22 16:21:30 r, 00.00m,0000565555Hz,0000000000c,0000000.000s, 046.0C,00002195
2016-05-22 16:31:33 r, 00.00m,0000565533Hz,0000000000c,0000000.000s, 046.7C,00002195
2016-05-22 16:41:30 r, 00.00m,0000565359Hz,0000000000c,0000000.000s, 045.4C,00002195
2016-05-22 16:51:31 r, 00.00m,0000565280Hz,0000000000c,0000000.000s, 044.4C,00002195
2016-05-22 17:01:32 r, 00.00m,0000565353Hz,0000000000c,0000000.000s, 043.8C,00002195
2016-05-22 17:11:30 r, 00.00m,0000565199Hz,0000000000c,0000000.000s, 043.5C,00002195
2016-05-22 17:21:31 r, 00.00m,0000565237Hz,0000000000c,0000000.000s, 043.1C,00002195
2016-05-22 17:31:31 r, 00.00m,0000565152Hz,0000000000c,0000000.000s, 042.2C,00002195
2016-05-22 17:41:30 r, 00.00m,0000565115Hz,0000000000c,0000000.000s, 042.2C,00002195
2016-05-22 17:51:30 r, 00.00m,0000564998Hz,0000000000c,0000000.000s, 041.5C,00002195
2016-05-22 18:01:30 r, 00.00m,0000565049Hz,0000000000c,0000000.000s, 041.5C,00002195
2016-05-22 18:11:30 r, 00.00m,0000565030Hz,0000000000c,0000000.000s, 040.9C,00002195
2016-05-22 18:21:30 r, 00.00m,0000565016Hz,0000000000c,0000000.000s, 040.9C,00002195
2016-05-22 18:31:33 r, 00.00m,0000565003Hz,0000000000c,0000000.000s, 040.6C,00002195
2016-05-22 18:41:30 r, 00.00m,0000564980Hz,0000000000c,0000000.000s, 040.6C,00002195
2016-05-22 18:51:33 r, 00.00m,0000564977Hz,0000000000c,0000000.000s, 040.6C,00002195
2016-05-22 19:01:30 r, 00.00m,0000564967Hz,0000000000c,0000000.000s, 040.6C,00002195
2016-05-22 19:11:30 r, 00.00m,0000564973Hz,0000000000c,0000000.000s, 040.9C,00002195
2016-05-22 19:21:33 r, 00.00m,0000565047Hz,0000000000c,0000000.000s, 040.9C,00002195
2016-05-22 19:31:31 r, 00.00m,0000565100Hz,0000000000c,0000000.000s, 040.9C,00002195
2016-05-22 19:41:31 r, 00.00m,0000565047Hz,0000000000c,0000000.000s, 040.9C,00002195
2016-05-22 19:51:33 r, 00.00m,0000565065Hz,0000000000c,0000000.000s, 041.2C,00002195
2016-05-22 20:01:31 r, 00.00m,0000565120Hz,0000000000c,0000000.000s, 041.2C,00002195
2016-05-22 20:11:31 r, 00.00m,0000565130Hz,0000000000c,0000000.000s, 040.9C,00002195
2016-05-22 20:21:31 r, 00.00m,0000565102Hz,0000000000c,0000000.000s, 040.9C,00002195
2016-05-22 20:31:31 r, 05.89m,0000391302Hz,0000000000c,0000000.000s, 040.6C,00002195
2016-05-22 20:41:31 r, 05.94m,0000376026Hz,0000000000c,0000000.000s, 040.6C,00002195
2016-05-22 20:51:31 r, 07.12m,0000125955Hz,0000000000c,0000000.000s, 040.2C,00002195
2016-05-22 21:01:31 r, 06.63m,0000198907Hz,0000000000c,0000000.000s, 040.2C,00002195
2016-05-22 21:11:31 r, 07.25m,0000112528Hz,0000000000c,0000000.000s, 039.9C,00002195
2016-05-22 21:21:31 r, 08.65m,0000030724Hz,0000000000c,0000000.000s, 039.6C,00002195
2016-05-22 21:31:31 r, 09.18m,0000018998Hz,0000000000c,0000000.000s, 039.6C,00002195
2016-05-22 21:41:31 r, 10.52m,0000005520Hz,0000000000c,0000000.000s, 039.3C,00002195
2016-05-22 21:51:31 r, 12.02m,0000001380Hz,0000000000c,0000000.000s, 039.3C,00002195
2016-05-22 22:01:31 r, 13.56m,0000000336Hz,0000000000c,0000000.000s, 039.0C,00002195
2016-05-22 22:11:31 r, 14.99m,0000000090Hz,0000005171c,0000000.011s, 039.0C,00002195
2016-05-22 22:21:31 r, 15.91m,0000000038Hz,0000011979c,0000000.026s, 038.6C,00002195
2016-05-22 22:31:31 r, 16.20m,0000000029Hz,0000015737c,0000000.034s, 038.6C,00002195
2016-05-22 22:41:31 r, 16.25m,0000000028Hz,0000016440c,0000000.036s, 038.6C,00002195
2016-05-22 22:51:31 r, 16.29m,0000000027Hz,0000017090c,0000000.037s, 038.6C,00002195
2016-05-22 23:01:31 r, 16.04m,0000000034Hz,0000013531c,0000000.029s, 038.3C,00002195
2016-05-22 23:11:31 r, 15.74m,0000000045Hz,0000010249c,0000000.022s, 038.3C,00002195
2016-05-22 23:21:33 r, 15.81m,0000000042Hz,0000010989c,0000000.024s, 038.3C,00002195
2016-05-22 23:31:31 r, 15.47m,0000000056Hz,0000008022c,0000000.017s, 038.3C,00002195
2016-05-22 23:41:31 r, 15.61m,0000000051Hz,0000009186c,0000000.020s, 038.0C,00002195
2016-05-22 23:51:31 r, 15.48m,0000000059Hz,0000008105c,0000000.018s, 038.0C,00002195
